When you browse on this site, cookies collect data to enhance your experience and personalize the content and advertising you see.
Visit our Privacy Policy to learn more. By continuing to use the site, you agree to this use of cookies and data.
  • In Hungary
  • List of Countries
  • For 7 days
  • Water Temperature
  • Weather Map
  • News
  • Weather Widgets
  • user-avatar
    Login

    Hourly Weather Lipovka

    Today, 20 October, Sunday

    Time Temperature Precipitation Wind Pressure Humidity
    00:00 +4°C° 0 mm 3 mps 753 mmHg 85%
    01:00 +4°C° 0 mm 3 mps 753 mmHg 87%
    02:00 +3°C° 0 mm 3 mps 753 mmHg 89%
    03:00 +3°C° 0 mm 3 mps 753 mmHg 90%
    04:00 +3°C° 0 mm 3 mps 753 mmHg 91%
    05:00 +3°C° 0 mm 3 mps 753 mmHg 92%
    06:00 +3°C° 0 mm 3 mps 753 mmHg 93%
    07:00 +3°C° 0 mm 3 mps 753 mmHg 91%
    08:00 +4°C° 0 mm 3 mps 753 mmHg 88%
    09:00 +5°C° 0 mm 4 mps 753 mmHg 85%
    10:00 +6°C° 0 mm 4 mps 753 mmHg 83%
    11:00 +8°C° 0 mm 4 mps 752 mmHg 81%
    12:00 +10°C° 0 mm 4 mps 752 mmHg 79%
    13:00 +10°C° 0 mm 4 mps 752 mmHg 80%
    14:00 +11°C° 0 mm 4 mps 752 mmHg 80%
    15:00 +11°C° 0 mm 4 mps 752 mmHg 81%
    16:00 +11°C° 0 mm 4 mps 752 mmHg 84%
    17:00 +11°C° 0 mm 4 mps 752 mmHg 86%
    18:00 +10°C° 0 mm 4 mps 752 mmHg 89%
    19:00 +10°C° 0 mm 4 mps 752 mmHg 89%
    20:00 +10°C° 0 mm 4 mps 751 mmHg 89%
    21:00 +10°C° 0 mm 4 mps 751 mmHg 89%
    22:00 +10°C° 0 mm 4 mps 751 mmHg 89%
    23:00 +10°C° 0 mm 4 mps 751 mmHg 89%

    Tomorrow, 21 October, Monday

    Time Temperature Precipitation Wind Pressure Humidity
    00:00 +10°C° 0 mm 4 mps 751 mmHg 90%
    01:00 +10°C° 0 mm 4 mps 751 mmHg 90%
    02:00 +10°C° 0 mm 3 mps 751 mmHg 91%
    03:00 +9°C° 0 mm 3 mps 751 mmHg 91%
    04:00 +9°C° 0 mm 3 mps 751 mmHg 92%
    05:00 +9°C° 0 mm 3 mps 751 mmHg 93%
    06:00 +8°C° 0 mm 4 mps 750 mmHg 94%
    07:00 +8°C° 0 mm 4 mps 750 mmHg 91%
    08:00 +9°C° 0 mm 5 mps 750 mmHg 89%
    09:00 +9°C° 0 mm 5 mps 750 mmHg 87%
    10:00 +10°C° 0 mm 6 mps 749 mmHg 83%
    11:00 +13°C° 0 mm 6 mps 749 mmHg 79%
    12:00 +14°C° 0 mm 6 mps 749 mmHg 74%
    13:00 +14°C° 0 mm 7 mps 748 mmHg 74%
    14:00 +14°C° 0 mm 7 mps 748 mmHg 74%
    15:00 +14°C° 0 mm 7 mps 747 mmHg 74%
    16:00 +12°C° 0 mm 7 mps 747 mmHg 74%
    17:00 +12°C° 0 mm 7 mps 746 mmHg 75%
    18:00 +12°C° 0 mm 7 mps 746 mmHg 75%
    19:00 +12°C° 0 mm 7 mps 746 mmHg 75%
    20:00 +12°C° 0 mm 7 mps 745 mmHg 75%
    21:00 +11°C° 0 mm 7 mps 745 mmHg 75%
    22:00 +11°C° 1.1 mm 6 mps 745 mmHg 81%
    23:00 +10°C° 1.1 mm 5 mps 745 mmHg 87%

    Day after tomorrow, 22 October, Tuesday

    Time Temperature Precipitation Wind Pressure Humidity
    00:00 +11°C° 1.1 mm 4 mps 745 mmHg 93%
    01:00 +10°C° 0.2 mm 3 mps 746 mmHg 92%
    02:00 +10°C° 0.2 mm 3 mps 746 mmHg 92%
    03:00 +10°C° 0.2 mm 3 mps 746 mmHg 91%
    04:00 +9°C° 0 mm 3 mps 747 mmHg 93%
    05:00 +8°C° 0 mm 3 mps 747 mmHg 94%
    06:00 +8°C° 0 mm 2 mps 747 mmHg 95%
    07:00 +8°C° 0 mm 3 mps 748 mmHg 92%
    08:00 +8°C° 0 mm 3 mps 748 mmHg 88%
    09:00 +8°C° 0 mm 3 mps 748 mmHg 85%
    10:00 +9°C° 0 mm 3 mps 748 mmHg 79%
    11:00 +9°C° 0 mm 3 mps 749 mmHg 73%
    12:00 +10°C° 0 mm 4 mps 749 mmHg 67%
    13:00 +10°C° 0 mm 4 mps 749 mmHg 68%
    14:00 +10°C° 0 mm 4 mps 749 mmHg 68%
    15:00 +10°C° 0 mm 4 mps 749 mmHg 68%
    16:00 +9°C° 0 mm 3 mps 749 mmHg 72%
    17:00 +8°C° 0 mm 2 mps 749 mmHg 75%
    18:00 +8°C° 0 mm 2 mps 750 mmHg 79%
    19:00 +8°C° 0 mm 2 mps 750 mmHg 79%
    20:00 +8°C° 0 mm 2 mps 750 mmHg 78%
    21:00 +9°C° 0 mm 1 mps 750 mmHg 78%
    22:00 +9°C° 0 mm 1 mps 750 mmHg 78%
    23:00 +8°C° 0 mm 1 mps 750 mmHg 78%

    23 October, Wednesday

    Time Temperature Precipitation Wind Pressure Humidity
    00:00 +8°C° 0 mm 1 mps 750 mmHg 78%
    01:00 +8°C° 0 mm 1 mps 750 mmHg 80%
    02:00 +6°C° 0 mm 2 mps 750 mmHg 82%
    03:00 +6°C° 0 mm 2 mps 750 mmHg 85%
    04:00 +6°C° 0 mm 2 mps 750 mmHg 86%
    05:00 +6°C° 0 mm 1 mps 750 mmHg 87%
    06:00 +6°C° 0 mm 1 mps 750 mmHg 89%
    07:00 +6°C° 0 mm 2 mps 750 mmHg 86%
    08:00 +7°C° 0 mm 3 mps 749 mmHg 84%
    09:00 +6°C° 0 mm 4 mps 749 mmHg 82%
    10:00 +7°C° 0 mm 4 mps 749 mmHg 79%
    11:00 +8°C° 0 mm 5 mps 748 mmHg 76%
    12:00 +9°C° 0 mm 5 mps 748 mmHg 73%
    13:00 +10°C° 0 mm 5 mps 748 mmHg 74%
    14:00 +10°C° 0 mm 6 mps 747 mmHg 76%
    15:00 +10°C° 0 mm 6 mps 747 mmHg 78%
    16:00 +10°C° 0 mm 6 mps 747 mmHg 81%
    17:00 +11°C° 0 mm 6 mps 746 mmHg 85%
    18:00 +11°C° 0 mm 6 mps 746 mmHg 88%
    19:00 +10°C° 0 mm 6 mps 746 mmHg 90%
    20:00 +10°C° 0 mm 5 mps 746 mmHg 91%
    21:00 +10°C° 0 mm 5 mps 746 mmHg 92%
    22:00 +10°C° 0 mm 5 mps 746 mmHg 93%
    23:00 +10°C° 0 mm 5 mps 746 mmHg 93%

    24 October, Thursday

    Time Temperature Precipitation Wind Pressure Humidity
    00:00 +10°C° 0 mm 4 mps 745 mmHg 94%
    01:00 +10°C° 0 mm 4 mps 745 mmHg 94%
    02:00 +10°C° 0 mm 4 mps 745 mmHg 94%
    03:00 +10°C° 0 mm 4 mps 745 mmHg 94%
    04:00 +10°C° 0 mm 4 mps 745 mmHg 94%
    05:00 +8°C° 0 mm 4 mps 745 mmHg 94%
    06:00 +8°C° 0 mm 4 mps 744 mmHg 94%
    07:00 +9°C° 0 mm 5 mps 744 mmHg 91%
    08:00 +9°C° 0 mm 5 mps 744 mmHg 89%
    09:00 +10°C° 0 mm 5 mps 744 mmHg 87%
    10:00 +12°C° 0 mm 5 mps 744 mmHg 83%
    11:00 +12°C° 0 mm 4 mps 744 mmHg 80%
    12:00 +13°C° 0 mm 4 mps 744 mmHg 77%
    13:00 +14°C° 0 mm 4 mps 744 mmHg 77%
    14:00 +14°C° 0 mm 3 mps 744 mmHg 77%
    15:00 +14°C° 0 mm 3 mps 744 mmHg 78%
    16:00 +14°C° 0 mm 2 mps 744 mmHg 80%
    17:00 +14°C° 0 mm 2 mps 744 mmHg 83%
    18:00 +13°C° 0 mm 2 mps 744 mmHg 86%
    19:00 +13°C° 0 mm 1 mps 744 mmHg 88%
    20:00 +12°C° 0 mm 1 mps 744 mmHg 89%
    21:00 +12°C° 0 mm 1 mps 745 mmHg 91%
    22:00 +12°C° 0 mm 1 mps 745 mmHg 92%
    23:00 +11°C° 0 mm 1 mps 745 mmHg 93%

    25 October, Friday

    Time Temperature Precipitation Wind Pressure Humidity
    00:00 +10°C° 0 mm 2 mps 745 mmHg 95%
    01:00 +10°C° 0.1 mm 2 mps 745 mmHg 95%
    02:00 +10°C° 0.1 mm 2 mps 745 mmHg 95%
    03:00 +10°C° 0.1 mm 2 mps 745 mmHg 96%
    04:00 +10°C° 0.2 mm 2 mps 745 mmHg 95%
    05:00 +9°C° 0.2 mm 2 mps 745 mmHg 94%
    06:00 +9°C° 0.2 mm 3 mps 745 mmHg 93%
    07:00 +9°C° 0 mm 3 mps 746 mmHg 90%
    08:00 +9°C° 0 mm 3 mps 746 mmHg 87%
    09:00 +9°C° 0 mm 3 mps 746 mmHg 85%
    10:00 +9°C° 0 mm 3 mps 746 mmHg 81%
    11:00 +10°C° 0 mm 3 mps 747 mmHg 77%
    12:00 +10°C° 0 mm 3 mps 747 mmHg 73%
    13:00 +10°C° 0 mm 3 mps 747 mmHg 71%
    14:00 +10°C° 0 mm 3 mps 747 mmHg 70%
    15:00 +10°C° 0 mm 3 mps 747 mmHg 69%
    16:00 +9°C° 0 mm 2 mps 748 mmHg 71%
    17:00 +9°C° 0 mm 2 mps 748 mmHg 73%
    18:00 +9°C° 0 mm 2 mps 748 mmHg 75%
    19:00 +9°C° 0 mm 2 mps 748 mmHg 75%
    20:00 +8°C° 0 mm 2 mps 748 mmHg 75%
    21:00 +8°C° 0 mm 2 mps 749 mmHg 75%
    22:00 +8°C° 0 mm 2 mps 749 mmHg 78%
    23:00 +7°C° 0 mm 2 mps 748 mmHg 80%
    Show more